STARLINK-34012, 63926

Orbit data source: Space-Track

STARLINK-34012, 63926 is a payload satellite owned by SpaceX/Seattle (US) in LEO that was launched on Tue, 13 May 2025 UTC via an FALCON 9 launch vehicle from the Air Force Western Test Range (AFWTR). Payload-class satellites include a variety of spacecraft equipped with specific instruments for various scientific and technological missions. These include communications satellites like Starlink; space stations such as the ISS; scientific satellites like the Hubble; Earth observation satellites from companies like Planet Labs, Umbra, and HawkEye 360; GPS; miniature CubeSats for education and research; and military/defense satellites.

Loading next visibility...
Identifier
63926, 2025-098A
Orbit
LEO
Country
Flag of USUS
Related business
Manufacturer
SpaceX/Seattle
Mission
Operational Commercial Communications
Bus & Motor
STARLINK V2MO, Unknown motor
Mass
575 kg wet, ~530 kg dry
Launch date (UTC)
2025-05-13 (7 months ago)
Launch vehicle
FALCON 9
Launch site
Air Force Western Test Range (AFWTR)
Object type
Payload
Rocket body
Debris
Shape & HBR
Box + 2 Pan, 17.7 m
Radar Cross Section
36.964 m², Large (>1 m²)

Expand to show TLE details & history
Last TLE update: 20 hours ago

TLE from 20 hours ago
0 STARLINK-34012
1 63926U 25098A   25348.79922841  .00000858  00000-0  79694-4 0  9994
2 63926  70.0004 128.6195 0003303 270.0051  90.0729 14.98329243 33878
Epoch: 2025-12-14T19:10Z
TLE epoch observation values (Epoch: 2025-12-14T19:10:53.334Z)
Latitude
-0.00009°
Longitude
117.19028°
Altitude
574.486 km
Speed
7.574 km/s
True Right ascension
08h 34m 28s
True Declination
0° 00' 00"
Sunlit
Object was in full shadow at epoch
Visualization orbit readout
Latitude
Unknown
Longitude
Unknown
Altitude
Unknown
Speed
Unknown
Apparent Right ascension
Unknown
Apparent Declination
Unknown
Sunlit
N/A
Visualization observer readout
Local Sidereal Time
13:23:41
Azimuth
Unknown
Elevation
Unknown
Doppler factor
Unknown
Orbital elements
Apogee altitude
572.301 km
Perigee altitude
567.711 km
Semi-major axis
6,948.143 km
Eccentricity
0.00033
Inclination
70.0004°
RAAN
128.6195°
Arg. of periapsis
270.0051°
True anomaly
90.11075°
Mean anomaly
90.0729°
Eccentric anomaly
90.09182°
Mean motion
3.74749 °/min
Orbital period
96.06 mins
BSTAR
0.000079694
Loading maneuver chart data...
Computing Atmospheric mass density...
Loading historical data...
Loading historical data...
Loading historical data...
Loading historical data...
Loading historical data...
Loading historical data...
Loading historical data...

Documentation

Showing up to 5 results
|